When you browse on this site, cookies collect data to enhance your experience and personalize the content and advertising you see.
Visit our Privacy Policy to learn more. By continuing to use the site, you agree to this use of cookies and data.
  • In Spain
  • List of Countries
  • For 7 days
  • Water Temperature
  • Satellite Maps
  • Weather Map
  • Weather Widgets
  • user-avatar
    Login

    Hourly Weather Ties

    Today, 22 April, Monday

    Time Temperature Precipitation Wind Pressure Humidity
    00:00 +20°C° 0 mm 4 mps 749 mmHg 77%
    01:00 +20°C° 0 mm 4 mps 749 mmHg 78%
    02:00 +20°C° 0 mm 4 mps 749 mmHg 80%
    03:00 +20°C° 0 mm 4 mps 749 mmHg 81%
    04:00 +19°C° 0 mm 4 mps 749 mmHg 83%
    05:00 +19°C° 0 mm 3 mps 749 mmHg 87%
    06:00 +20°C° 0 mm 4 mps 749 mmHg 80%
    07:00 +21°C° 0 mm 5 mps 749 mmHg 74%
    08:00 +22°C° 0 mm 5 mps 750 mmHg 67%
    09:00 +25°C° 0 mm 5 mps 750 mmHg 57%
    10:00 +28°C° 0 mm 6 mps 750 mmHg 47%
    11:00 +29°C° 0 mm 5 mps 750 mmHg 39%
    12:00 +30°C° 0 mm 5 mps 750 mmHg 37%
    13:00 +30°C° 0 mm 6 mps 749 mmHg 34%
    14:00 +32°C° 0 mm 6 mps 749 mmHg 32%
    15:00 +29°C° 0 mm 6 mps 748 mmHg 38%
    16:00 +28°C° 0 mm 6 mps 748 mmHg 44%
    17:00 +26°C° 0 mm 6 mps 748 mmHg 50%
    18:00 +24°C° 0 mm 6 mps 748 mmHg 58%
    19:00 +22°C° 0 mm 5 mps 748 mmHg 67%
    20:00 +21°C° 0 mm 5 mps 748 mmHg 75%
    21:00 +20°C° 0 mm 5 mps 749 mmHg 77%
    22:00 +20°C° 0 mm 5 mps 749 mmHg 79%
    23:00 +20°C° 0 mm 5 mps 749 mmHg 80%

    Tomorrow, 23 April, Tuesday

    Time Temperature Precipitation Wind Pressure Humidity
    00:00 +20°C° 0 mm 5 mps 749 mmHg 82%
    01:00 +20°C° 0 mm 5 mps 749 mmHg 83%
    02:00 +19°C° 0 mm 5 mps 749 mmHg 85%
    03:00 +19°C° 0 mm 5 mps 748 mmHg 85%
    04:00 +19°C° 0 mm 5 mps 748 mmHg 86%
    05:00 +19°C° 0 mm 4 mps 748 mmHg 87%
    06:00 +20°C° 0 mm 5 mps 749 mmHg 80%
    07:00 +21°C° 0 mm 5 mps 749 mmHg 74%
    08:00 +22°C° 0 mm 5 mps 749 mmHg 67%
    09:00 +25°C° 0 mm 5 mps 749 mmHg 57%
    10:00 +27°C° 0 mm 5 mps 750 mmHg 46%
    11:00 +30°C° 0 mm 5 mps 750 mmHg 35%
    12:00 +30°C° 0 mm 5 mps 749 mmHg 34%
    13:00 +30°C° 0 mm 6 mps 749 mmHg 34%
    14:00 +32°C° 0 mm 6 mps 748 mmHg 34%
    15:00 +29°C° 0 mm 6 mps 748 mmHg 40%
    16:00 +28°C° 0 mm 6 mps 747 mmHg 47%
    17:00 +26°C° 0 mm 6 mps 747 mmHg 53%
    18:00 +25°C° 0 mm 5 mps 747 mmHg 62%
    19:00 +22°C° 0 mm 5 mps 748 mmHg 71%
    20:00 +21°C° 0 mm 4 mps 748 mmHg 79%
    21:00 +20°C° 0 mm 4 mps 748 mmHg 80%
    22:00 +20°C° 0 mm 4 mps 749 mmHg 80%
    23:00 +20°C° 0 mm 4 mps 749 mmHg 80%

    Day after tomorrow, 24 April, Wednesday

    Time Temperature Precipitation Wind Pressure Humidity
    00:00 +20°C° 0 mm 4 mps 749 mmHg 80%
    01:00 +20°C° 0 mm 4 mps 748 mmHg 80%
    02:00 +20°C° 0 mm 5 mps 748 mmHg 80%
    03:00 +19°C° 0 mm 4 mps 748 mmHg 82%
    04:00 +19°C° 0 mm 4 mps 748 mmHg 84%
    05:00 +19°C° 0 mm 4 mps 748 mmHg 86%
    06:00 +20°C° 0 mm 4 mps 748 mmHg 78%
    07:00 +22°C° 0 mm 4 mps 749 mmHg 71%
    08:00 +23°C° 0 mm 4 mps 749 mmHg 63%
    09:00 +26°C° 0 mm 4 mps 749 mmHg 54%
    10:00 +29°C° 0 mm 4 mps 750 mmHg 44%
    11:00 +32°C° 0 mm 4 mps 750 mmHg 35%
    12:00 +33°C° 0 mm 4 mps 749 mmHg 34%
    13:00 +33°C° 0 mm 5 mps 749 mmHg 32%
    14:00 +34°C° 0 mm 5 mps 748 mmHg 31%
    15:00 +33°C° 0 mm 5 mps 748 mmHg 36%
    16:00 +30°C° 0 mm 5 mps 748 mmHg 41%
    17:00 +28°C° 0 mm 5 mps 747 mmHg 46%
    18:00 +27°C° 0 mm 5 mps 748 mmHg 53%
    19:00 +25°C° 0 mm 4 mps 748 mmHg 61%
    20:00 +22°C° 0 mm 4 mps 749 mmHg 68%
    21:00 +22°C° 0 mm 4 mps 749 mmHg 69%
    22:00 +22°C° 0 mm 4 mps 750 mmHg 69%
    23:00 +21°C° 0 mm 4 mps 750 mmHg 70%

    25 April, Thursday

    Time Temperature Precipitation Wind Pressure Humidity
    00:00 +21°C° 0 mm 4 mps 750 mmHg 70%
    01:00 +21°C° 0 mm 4 mps 749 mmHg 70%
    02:00 +21°C° 0 mm 4 mps 749 mmHg 71%
    03:00 +20°C° 0 mm 4 mps 748 mmHg 71%
    04:00 +20°C° 0 mm 4 mps 748 mmHg 72%
    05:00 +20°C° 0 mm 4 mps 748 mmHg 73%
    06:00 +22°C° 0 mm 4 mps 749 mmHg 66%
    07:00 +23°C° 0 mm 4 mps 749 mmHg 59%
    08:00 +25°C° 0 mm 4 mps 750 mmHg 53%
    09:00 +28°C° 0 mm 4 mps 750 mmHg 45%
    10:00 +30°C° 0 mm 4 mps 750 mmHg 37%
    11:00 +33°C° 0 mm 4 mps 750 mmHg 29%
    12:00 +34°C° 0 mm 4 mps 749 mmHg 28%
    13:00 +34°C° 0 mm 5 mps 749 mmHg 28%
    14:00 +35°C° 0 mm 5 mps 748 mmHg 28%
    15:00 +33°C° 0 mm 5 mps 748 mmHg 33%
    16:00 +30°C° 0 mm 5 mps 748 mmHg 38%
    17:00 +29°C° 0 mm 6 mps 748 mmHg 43%
    18:00 +27°C° 0 mm 5 mps 748 mmHg 51%
    19:00 +25°C° 0 mm 4 mps 749 mmHg 58%
    20:00 +23°C° 0 mm 4 mps 750 mmHg 65%
    21:00 +23°C° 0 mm 4 mps 750 mmHg 65%
    22:00 +22°C° 0 mm 4 mps 750 mmHg 65%
    23:00 +22°C° 0 mm 4 mps 750 mmHg 65%

    26 April, Friday

    Time Temperature Precipitation Wind Pressure Humidity
    00:00 +22°C° 0 mm 5 mps 750 mmHg 65%
    01:00 +22°C° 0 mm 5 mps 749 mmHg 65%
    02:00 +22°C° 0 mm 5 mps 748 mmHg 66%
    03:00 +21°C° 0 mm 5 mps 748 mmHg 66%
    04:00 +21°C° 0 mm 5 mps 748 mmHg 66%
    05:00 +21°C° 0 mm 5 mps 749 mmHg 67%
    06:00 +22°C° 0 mm 5 mps 749 mmHg 61%
    07:00 +25°C° 0 mm 5 mps 749 mmHg 55%
    08:00 +26°C° 0 mm 5 mps 750 mmHg 49%
    09:00 +28°C° 0 mm 5 mps 750 mmHg 41%
    10:00 +32°C° 0 mm 5 mps 750 mmHg 33%
    11:00 +34°C° 0 mm 5 mps 750 mmHg 25%
    12:00 +34°C° 0 mm 5 mps 749 mmHg 25%
    13:00 +35°C° 0 mm 5 mps 749 mmHg 25%
    14:00 +35°C° 0 mm 5 mps 748 mmHg 25%
    15:00 +34°C° 0 mm 5 mps 748 mmHg 29%
    16:00 +32°C° 0 mm 5 mps 748 mmHg 33%
    17:00 +30°C° 0 mm 5 mps 748 mmHg 37%
    18:00 +28°C° 0 mm 5 mps 748 mmHg 46%
    19:00 +26°C° 0 mm 5 mps 749 mmHg 55%
    20:00 +23°C° 0 mm 4 mps 750 mmHg 64%
    21:00 +23°C° 0 mm 4 mps 750 mmHg 65%
    22:00 +23°C° 0 mm 4 mps 750 mmHg 65%
    23:00 +22°C° 0 mm 4 mps 750 mmHg 66%

    27 April, Saturday

    Time Temperature Precipitation Wind Pressure Humidity
    00:00 +22°C° 0 mm 4 mps 749 mmHg 66%
    01:00 +22°C° 0 mm 5 mps 748 mmHg 66%
    02:00 +22°C° 0 mm 5 mps 748 mmHg 66%
    03:00 +21°C° 0 mm 5 mps 748 mmHg 68%
    04:00 +21°C° 0 mm 4 mps 748 mmHg 69%
    05:00 +21°C° 0 mm 4 mps 748 mmHg 71%
    06:00 +22°C° 0 mm 4 mps 748 mmHg 65%
    07:00 +25°C° 0 mm 4 mps 749 mmHg 59%
    08:00 +26°C° 0 mm 4 mps 749 mmHg 52%
    09:00 +28°C° 0 mm 5 mps 749 mmHg 44%
    10:00 +32°C° 0 mm 6 mps 749 mmHg 35%
    11:00 +34°C° 0 mm 6 mps 749 mmHg 27%
    12:00 +35°C° 0 mm 6 mps 749 mmHg 27%
    13:00 +35°C° 0 mm 6 mps 748 mmHg 27%
    14:00 +35°C° 0 mm 7 mps 747 mmHg 27%
    15:00 +33°C° 0 mm 6 mps 747 mmHg 32%
    16:00 +32°C° 0 mm 6 mps 747 mmHg 37%
    17:00 +29°C° 0 mm 5 mps 747 mmHg 43%
    18:00 +27°C° 0 mm 5 mps 748 mmHg 51%
    19:00 +25°C° 0 mm 4 mps 748 mmHg 60%
    20:00 +23°C° 0 mm 4 mps 749 mmHg 69%
    21:00 +22°C° 0 mm 4 mps 749 mmHg 70%
    22:00 +22°C° 0 mm 4 mps 749 mmHg 71%
    23:00 +22°C° 0 mm 4 mps 749 mmHg 72%
    Show more